DW4362 Weather Reports


time (UTC)temp
C
wind
direction
speed
KPH
gust
KPH
rain 1hr
cm
rain 24hr
cm
rain mn
cm
humidity
%
barometer
mb
20260508181649 22 160 0.0 0.0 0.00 0.00 0.00 85 1013.1
20260508180148 22 167 0.0 0.0 0.00 0.00 0.00 82 1012.9
20260508174648 22 250 0.0 0.0 0.00 0.00 0.00 82 1012.9
20260508173148 23 236 0.0 0.0 0.00 0.03 0.00 81 1013.1
20260508171648 23 110 3.2 3.2 0.00 0.05 0.00 82 1013.1
20260508170147 22 243 0.0 4.8 0.00 0.08 0.00 81 1013.4
20260508164647 22 191 4.8 4.8 0.00 0.30 0.00 82 1013.8
20260508163147 22 344 0.0 0.0 0.00 0.41 0.00 82 1014.1
20260508161647 22 8 3.2 3.2 0.00 0.41 0.00 82 1014.3
20260508160146 22 204 3.2 8.0 0.00 0.41 0.00 82 1014.3
20260508153146 20 68 0.0 0.0 0.00 0.43 0.00 87 1014.4
20260508151646 20 134 0.0 0.0 0.00 0.51 0.00 87 1014.7
20260508150146 20 200 0.0 3.2 0.00 1.70 0.00 85 1014.5
20260508144645 20 255 0.0 3.2 0.00 2.18 0.00 86 1014.4
20260508143145 20 124 0.0 3.2 0.00 2.18 0.00 87 1014.1
20260508141645 20 251 0.0 3.2 0.00 2.18 0.00 87 1014.5
20260508140145 19 131 0.0 0.0 0.00 2.18 0.00 89 1014.7
20260508134645 18 17 0.0 0.0 0.00 2.18 0.00 91 1014.8
20260508133144 18 342 3.2 4.8 0.00 2.18 0.00 90 1015.1
20260508131644 18 323 3.2 4.8 0.00 2.49 0.00 91 1014.8
20260508130144 18 360 0.0 0.0 0.00 2.49 0.00 91 1014.8
20260508121643 18 330 0.0 0.0 0.00 2.49 0.00 91 1014.0
20260508120143 18 231 0.0 0.0 0.00 2.49 0.00 92 1013.8
20260508114643 18 335 0.0 0.0 0.00 2.49 0.00 92 1014.3
20260508113142 18 146 0.0 0.0 0.00 2.49 0.00 92 1014.2
20260508111642 18 277 0.0 0.0 0.00 2.49 0.00 93 1014.1
20260508110142 18 340 0.0 0.0 0.00 2.49 0.00 93 1014.1
20260508104642 17 328 0.0 0.0 0.00 2.49 0.00 93 1013.5
20260508101642 18 326 0.0 0.0 0.00 2.49 0.00 93 1013.3
20260508100141 17 324 0.0 0.0 0.00 2.49 0.00 93 1013.0
20260508094641 18 319 0.0 3.2 0.00 2.49 0.00 93 1012.9
20260508093141 18 16 0.0 0.0 0.00 2.49 0.00 93 1012.8
20260508090141 18 12 0.0 3.2 0.00 2.49 0.00 93 1012.9
20260508084640 18 330 0.0 0.0 0.00 2.49 0.00 93 1012.8
20260508083140 18 261 0.0 3.2 0.00 2.49 0.00 94 1012.5
20260508081639 18 281 0.0 0.0 0.00 2.49 0.00 94 1012.7
20260508080139 17 352 0.0 0.0 0.00 2.49 0.00 94 1012.7
20260508073139 17 167 0.0 0.0 0.00 2.49 0.00 94 1012.9
20260508071639 17 167 0.0 0.0 0.00 2.49 0.00 94 1013.0
20260508070138 18 167 0.0 0.0 0.00 2.49 0.00 93 1012.9
20260508064638 18 34 0.0 3.2 0.00 2.49 0.00 94 1012.5
20260508063137 18 342 0.0 3.2 0.00 2.49 0.00 93 1013.3
20260508060137 18 17 0.0 3.2 0.00 2.49 0.00 93 1013.4
20260508054637 18 15 3.2 3.2 0.00 2.49 0.00 93 1013.6
20260508053137 18 16 0.0 0.0 0.00 2.49 0.00 92 1013.4
20260508050206 19 2 3.2 3.2 0.00 2.49 0.00 93 1013.6
20260508044636 19 226 0.0 0.0 0.00 2.49 2.49 93 1013.6
20260508043136 19 35 0.0 3.2 0.00 2.49 2.49 94 1013.4
20260508041635 19 355 0.0 0.0 0.00 2.49 2.49 94 1013.5
20260508040205 20 101 0.0 0.0 0.00 2.49 2.49 93 1013.5
20260508034635 20 253 0.0 0.0 0.00 2.49 2.49 92 1013.5
20260508033135 20 342 3.2 3.2 0.00 2.49 2.49 92 1013.4
20260508031636 20 347 0.0 3.2 0.00 2.49 2.49 92 1013.8
20260508030205 21 331 0.0 0.0 0.00 2.49 2.49 92 1013.7
20260508024705 21 351 0.0 0.0 0.00 2.49 2.49 92 1013.6
20260508023205 21 69 0.0 3.2 0.00 2.49 2.49 91 1013.4
20260508021705 21 328 0.0 0.0 0.00 2.49 2.49 92 1013.0
20260508014704 22 355 0.0 0.0 0.00 2.49 2.49 94 1012.3
20260508013203 22 355 0.0 0.0 0.00 2.49 2.49 93 1012.1
20260508011703 22 60 0.0 0.0 0.00 2.49 2.49 93 1012.1
20260508010203 22 41 0.0 0.0 0.00 2.49 2.49 94 1012.2
20260508004703 22 41 0.0 0.0 0.00 2.49 2.49 93 1012.0
20260508003202 22 41 0.0 0.0 0.00 2.49 2.49 92 1011.9
20260508001703 23 41 0.0 0.0 0.00 2.49 2.49 92 1011.8
20260507234702 23 41 0.0 0.0 0.00 2.49 2.49 90 1011.7
20260507233202 23 76 0.0 0.0 0.00 2.49 2.49 90 1011.8
20260507231702 25 72 3.2 3.2 0.00 2.49 2.49 91 1011.5
20260507230202 25 136 0.0 0.0 0.00 2.49 2.49 89 1011.5
20260507224702 25 135 0.0 0.0 0.00 2.49 2.49 90 1011.6
20260507223202 25 136 0.0 0.0 0.00 2.49 2.49 90 1011.6
20260507221702 25 136 0.0 0.0 0.00 2.49 2.49 89 1011.6
20260507220202 25 136 0.0 0.0 0.00 2.49 2.49 89 1011.5
20260507214702 25 141 0.0 0.0 0.00 2.49 2.49 88 1011.5
20260507213202 26 141 0.0 0.0 0.00 2.49 2.49 88 1011.5
20260507211702 26 143 0.0 3.2 0.00 2.49 2.49 89 1011.5
20260507210202 26 111 0.0 0.0 0.00 2.49 2.49 88 1011.6
20260507204702 25 141 0.0 0.0 0.00 2.49 2.49 89 1011.3
20260507203201 25 144 0.0 0.0 0.00 2.49 2.49 92 1011.6
20260507201701 24 144 0.0 0.0 0.00 2.49 2.49 94 1011.6
20260507200201 23 151 0.0 0.0 0.00 2.49 2.49 94 1011.6
20260507193200 22 6 0.0 0.0 0.00 2.49 2.49 95 1011.8
20260507191700 22 6 0.0 0.0 0.00 2.49 2.49 95 1012.1
20260507190200 22 6 0.0 3.2 0.00 2.49 2.49 95 1011.8
20260507184659 22 356 0.0 3.2 0.00 2.49 2.49 94 1012.2
20260507183159 22 342 0.0 0.0 0.03 2.49 2.49 94 1012.5